This is the latest recevied weather packets stored in our database for station/object JA0ZJX-13. If no packets are shown the sender has not sent any weather packets the latest 10 day(s).
| Time | Temp. | Humidity | Pressure | Rain* | Wind** | Luminosity | Snow |
|---|---|---|---|---|---|---|---|
| 1777375406 | 19.44° C | 55% | 1010.5 hPa | 0 mm | - | 0 W/m² | - |
| 1777374815 | 19.44° C | 55% | 1010.5 hPa | 0 mm | - | 0 W/m² | - |
| 1777374208 | 19.44° C | 55% | 1010.4 hPa | 0 mm | - | 0 W/m² | - |
| 1777373617 | 19.44° C | 54% | 1010.3 hPa | 0 mm | - | 0 W/m² | - |
| 1777373007 | 19.44° C | 54% | 1010.2 hPa | 0 mm | - | 0 W/m² | - |
| 1777372416 | 19.44° C | 54% | 1010.2 hPa | 0 mm | - | 0 W/m² | - |
| 1777371808 | 19.44° C | 53% | 1009.9 hPa | 0 mm | - | 0 W/m² | - |
| 1777371218 | 19.44° C | 53% | 1010 hPa | 0 mm | - | 0 W/m² | - |
| 1777370606 | 19.44° C | 53% | 1010.1 hPa | 0 mm | - | 0 W/m² | - |
| 1777370015 | 20° C | 52% | 1009.9 hPa | 0 mm | - | 0 W/m² | - |
| 1777369409 | 20° C | 51% | 1009.9 hPa | 0 mm | - | 0 W/m² | - |
| 1777368818 | 20° C | 51% | 1009.8 hPa | 0 mm | - | 0 W/m² | - |
| 1777368208 | 20° C | 50% | 1009.6 hPa | 0 mm | - | 5 W/m² | - |
| 1777367617 | 20° C | 49% | 1009.5 hPa | 0 mm | - | 9 W/m² | - |
| 1777367010 | 20.56° C | 49% | 1009.6 hPa | 0 mm | - | 12 W/m² | - |
| 1777366420 | 20.56° C | 48% | 1009.6 hPa | 0 mm | - | 28 W/m² | - |
| 1777365807 | 21.11° C | 47% | 1009.5 hPa | 0 mm | - | 62 W/m² | - |
| 1777365221 | 21.11° C | 45% | 1009.6 hPa | 0 mm | - | 90 W/m² | - |
| 1777364609 | 21.67° C | 45% | 1009.6 hPa | 0 mm | - | 183 W/m² | - |
| 1777364019 | 22.22° C | 44% | 1009.6 hPa | 0 mm | - | 255 W/m² | - |
| 1777363408 | 22.22° C | 43% | 1009.5 hPa | 0 mm | - | 232 W/m² | - |
| 1777362820 | 22.22° C | 41% | 1009.5 hPa | 0 mm | - | 367 W/m² | - |
| 1777362208 | 22.78° C | 40% | 1009.5 hPa | 0 mm | - | 216 W/m² | - |
| 1777361617 | 23.33° C | 38% | 1009.6 hPa | 0 mm | - | 468 W/m² | - |
| 1777361006 | 23.33° C | 37% | 1009.6 hPa | 0 mm | - | 483 W/m² | - |
* Rain latest hour (hover to see other rain measurements)
** Current wind speed in m/s (hover to see current wind gust speed)